Time,TemperatureF,DewpointF,PressureIn,WindDirection,WindDirectionDegrees,WindSpeedMPH,WindSpeedGustMPH,Humidity,HourlyPrecipIn,Conditions,Clouds,dailyrainin,SoftwareType,DateUTC
2013-04-23 00:02:00,21.5,17.0,25.87,NNE,27,11.0,12.0,84,0.00,,,0.00,weatherlink.com 1.10,2013-04-23 06:02:00,
2013-04-23 00:18:00,21.3,18.0,25.86,NNE,16,8.0,12.0,86,0.00,,,0.00,weatherlink.com 1.10,2013-04-23 06:18:00,
2013-04-23 00:33:00,21.2,18.0,25.87,North,352,6.0,10.0,86,0.00,,,0.00,weatherlink.com 1.10,2013-04-23 06:33:00,
2013-04-23 01:03:00,20.9,17.0,25.87,NE,35,8.0,9.0,85,0.00,,,0.00,weatherlink.com 1.10,2013-04-23 07:03:00,
2013-04-23 01:18:00,21.0,17.0,25.86,NNE,20,7.0,11.0,84,0.00,,,0.00,weatherlink.com 1.10,2013-04-23 07:18:00,
2013-04-23 01:33:00,21.0,18.0,25.87,NNW,344,9.0,11.0,86,0.00,,,0.00,weatherlink.com 1.10,2013-04-23 07:33:00,
2013-04-23 01:48:00,20.8,17.0,25.85,NNE,12,10.0,12.0,85,0.00,,,0.00,weatherlink.com 1.10,2013-04-23 07:48:00,
2013-04-23 02:03:00,20.5,16.0,25.85,North,5,8.0,13.0,84,0.00,,,0.00,weatherlink.com 1.10,2013-04-23 08:03:00,
2013-04-23 02:18:00,20.8,16.0,25.84,North,9,11.0,14.0,83,0.00,,,0.00,weatherlink.com 1.10,2013-04-23 08:18:00,
2013-04-23 02:33:00,20.6,17.0,25.85,North,1,8.0,12.0,84,0.00,,,0.00,weatherlink.com 1.10,2013-04-23 08:33:00,
2013-04-23 02:48:00,20.5,17.0,25.84,North,8,13.0,13.0,85,0.00,,,0.00,weatherlink.com 1.10,2013-04-23 08:48:00,
2013-04-23 03:03:00,20.4,17.0,25.83,NNW,336,11.0,11.0,85,0.00,,,0.00,weatherlink.com 1.10,2013-04-23 09:03:00,
2013-04-23 03:18:00,20.4,16.0,25.83,North,352,10.0,14.0,82,0.00,,,0.00,weatherlink.com 1.10,2013-04-23 09:18:00,
2013-04-23 03:33:00,20.4,17.0,25.83,NNW,340,7.0,12.0,85,0.00,,,0.00,weatherlink.com 1.10,2013-04-23 09:33:00,
2013-04-23 03:48:00,20.5,17.0,25.82,NNW,348,7.0,12.0,85,0.00,,,0.00,weatherlink.com 1.10,2013-04-23 09:48:00,
2013-04-23 04:03:00,20.3,17.0,25.83,NNW,330,6.0,10.0,86,0.00,,,0.00,weatherlink.com 1.10,2013-04-23 10:03:00,
2013-04-23 04:18:00,20.2,17.0,25.82,NNW,339,6.0,10.0,86,0.00,,,0.00,weatherlink.com 1.10,2013-04-23 10:18:00,
2013-04-23 04:33:00,20.2,17.0,25.82,NNW,328,9.0,11.0,86,0.00,,,0.00,weatherlink.com 1.10,2013-04-23 10:33:00,
2013-04-23 04:48:00,20.2,17.0,25.83,NNW,329,8.0,11.0,86,0.00,,,0.00,weatherlink.com 1.10,2013-04-23 10:48:00,
2013-04-23 05:03:00,20.2,17.0,25.83,NW,317,7.0,11.0,87,0.00,,,0.00,weatherlink.com 1.10,2013-04-23 11:03:00,
2013-04-23 05:18:00,20.2,17.0,25.81,NW,324,9.0,10.0,87,0.00,,,0.00,weatherlink.com 1.10,2013-04-23 11:18:00,
2013-04-23 05:33:00,20.1,17.0,25.82,NW,321,7.0,11.0,87,0.00,,,0.00,weatherlink.com 1.10,2013-04-23 11:33:00,
2013-04-23 05:48:00,20.2,17.0,25.82,NW,322,8.0,11.0,87,0.00,,,0.00,weatherlink.com 1.10,2013-04-23 11:48:00,
2013-04-23 06:03:00,20.2,17.0,25.82,NW,326,10.0,13.0,86,0.00,,,0.00,weatherlink.com 1.10,2013-04-23 12:03:00,
2013-04-23 06:18:00,20.3,17.0,25.81,NNW,327,8.0,13.0,86,0.00,,,0.00,weatherlink.com 1.10,2013-04-23 12:18:00,
2013-04-23 06:33:00,20.4,17.0,25.82,NNW,333,7.0,11.0,86,0.00,,,0.00,weatherlink.com 1.10,2013-04-23 12:33:00,
2013-04-23 06:48:00,20.7,17.0,25.82,NNW,329,9.0,11.0,86,0.00,,,0.00,weatherlink.com 1.10,2013-04-23 12:48:00,
2013-04-23 07:03:00,21.0,17.0,25.83,NNW,329,9.0,12.0,85,0.00,,,0.00,weatherlink.com 1.10,2013-04-23 13:03:00,
2013-04-23 07:18:00,21.3,17.0,25.82,NNW,333,8.0,12.0,84,0.00,,,0.00,weatherlink.com 1.10,2013-04-23 13:18:00,
2013-04-23 07:33:00,21.4,17.0,25.83,NNW,329,9.0,11.0,82,0.00,,,0.00,weatherlink.com 1.10,2013-04-23 13:33:00,
2013-04-23 07:48:00,21.8,17.0,25.83,North,5,7.0,11.0,81,0.00,,,0.00,weatherlink.com 1.10,2013-04-23 13:48:00,
2013-04-23 08:18:00,23.6,17.0,25.83,NNW,334,6.0,13.0,77,0.00,,,0.00,weatherlink.com 1.10,2013-04-23 14:18:00,
2013-04-23 08:33:00,24.3,17.0,25.83,NW,326,8.0,13.0,75,0.00,,,0.00,weatherlink.com 1.10,2013-04-23 14:33:00,
2013-04-23 08:48:00,23.9,17.0,25.83,NNW,342,6.0,11.0,74,0.00,,,0.00,weatherlink.com 1.10,2013-04-23 14:48:00,
2013-04-23 09:03:00,24.1,17.0,25.83,NNE,31,7.0,10.0,73,0.00,,,0.00,weatherlink.com 1.10,2013-04-23 15:03:00,
2013-04-23 09:18:00,24.0,16.0,25.82,NNW,339,5.0,11.0,72,0.00,,,0.00,weatherlink.com 1.10,2013-04-23 15:18:00,
2013-04-23 09:33:00,25.4,17.0,25.82,NNW,344,9.0,12.0,70,0.00,,,0.00,weatherlink.com 1.10,2013-04-23 15:33:00,
2013-04-23 09:48:00,25.1,17.0,25.82,NW,318,6.0,14.0,71,0.00,,,0.00,weatherlink.com 1.10,2013-04-23 15:48:00,
2013-04-23 10:03:00,25.2,17.0,25.82,NW,316,10.0,11.0,71,0.00,,,0.00,weatherlink.com 1.10,2013-04-23 16:03:00,
2013-04-23 10:34:00,26.4,15.0,25.81,NNW,330,9.0,14.0,63,0.00,,,0.00,weatherlink.com 1.10,2013-04-23 16:34:00,
2013-04-23 10:49:00,27.4,17.0,25.81,NW,315,10.0,13.0,64,0.00,,,0.00,weatherlink.com 1.10,2013-04-23 16:49:00,
2013-04-23 11:04:00,27.0,17.0,25.81,WSW,246,4.0,14.0,66,0.00,,,0.00,weatherlink.com 1.10,2013-04-23 17:04:00,
2013-04-23 11:19:00,27.2,17.0,25.81,NW,316,5.0,15.0,65,0.00,,,0.00,weatherlink.com 1.10,2013-04-23 17:19:00,
2013-04-23 11:34:00,27.8,17.0,25.80,NW,319,10.0,15.0,64,0.00,,,0.00,weatherlink.com 1.10,2013-04-23 17:34:00,
2013-04-23 11:49:00,28.9,17.0,25.79,NW,323,11.0,15.0,61,0.00,,,0.00,weatherlink.com 1.10,2013-04-23 17:49:00,
2013-04-23 12:04:00,29.8,17.0,25.79,NW,307,14.0,17.0,60,0.00,,,0.00,weatherlink.com 1.10,2013-04-23 18:04:00,
2013-04-23 12:19:00,30.0,16.0,25.78,NNW,333,7.0,18.0,56,0.00,,,0.00,weatherlink.com 1.10,2013-04-23 18:19:00,
2013-04-23 12:34:00,30.6,16.0,25.77,North,3,7.0,19.0,56,0.00,,,0.00,weatherlink.com 1.10,2013-04-23 18:34:00,
2013-04-23 12:49:00,31.8,18.0,25.77,NW,314,6.0,17.0,56,0.00,,,0.00,weatherlink.com 1.10,2013-04-23 18:49:00,
2013-04-23 13:04:00,31.2,17.0,25.76,NNW,333,15.0,21.0,55,0.00,,,0.00,weatherlink.com 1.10,2013-04-23 19:04:00,
2013-04-23 13:19:00,32.4,16.0,25.75,NW,324,13.0,22.0,52,0.00,,,0.00,weatherlink.com 1.10,2013-04-23 19:19:00,
2013-04-23 13:34:00,32.5,16.0,25.75,NNW,335,9.0,16.0,51,0.00,,,0.00,weatherlink.com 1.10,2013-04-23 19:34:00,
2013-04-23 13:49:00,32.7,16.0,25.74,NNW,328,12.0,18.0,51,0.00,,,0.00,weatherlink.com 1.10,2013-04-23 19:49:00,
2013-04-23 14:04:00,33.7,17.0,25.74,NW,319,14.0,21.0,51,0.00,,,0.00,weatherlink.com 1.10,2013-04-23 20:04:00,
2013-04-23 14:19:00,34.3,16.0,25.73,NNW,339,8.0,21.0,48,0.00,,,0.00,weatherlink.com 1.10,2013-04-23 20:19:00,
2013-04-23 14:34:00,34.8,16.0,25.73,NW,314,17.0,22.0,47,0.00,,,0.00,weatherlink.com 1.10,2013-04-23 20:34:00,
2013-04-23 14:49:00,35.5,17.0,25.72,NNW,339,10.0,17.0,48,0.00,,,0.00,weatherlink.com 1.10,2013-04-23 20:49:00,
2013-04-23 15:04:00,34.9,17.0,25.72,NW,326,16.0,17.0,48,0.00,,,0.00,weatherlink.com 1.10,2013-04-23 21:04:00,
2013-04-23 15:19:00,35.9,17.0,25.72,NW,326,9.0,21.0,46,0.00,,,0.00,weatherlink.com 1.10,2013-04-23 21:19:00,
2013-04-23 15:34:00,36.5,17.0,25.71,NNE,32,7.0,19.0,46,0.00,,,0.00,weatherlink.com 1.10,2013-04-23 21:34:00,
2013-04-23 15:49:00,36.3,17.0,25.71,NNW,345,12.0,22.0,45,0.00,,,0.00,weatherlink.com 1.10,2013-04-23 21:49:00,
2013-04-23 16:04:00,36.7,18.0,25.71,NW,324,20.0,26.0,46,0.00,,,0.00,weatherlink.com 1.10,2013-04-23 22:04:00,
2013-04-23 16:19:00,36.5,17.0,25.70,NW,309,7.0,18.0,45,0.00,,,0.00,weatherlink.com 1.10,2013-04-23 22:19:00,
2013-04-23 16:34:00,36.7,16.0,25.70,NW,322,14.0,19.0,43,0.00,,,0.00,weatherlink.com 1.10,2013-04-23 22:34:00,
2013-04-23 16:50:00,37.3,15.0,25.70,NW,322,18.0,18.0,41,0.00,,,0.00,weatherlink.com 1.10,2013-04-23 22:50:00,
2013-04-23 17:05:00,37.3,16.0,25.70,NNW,335,8.0,15.0,42,0.00,,,0.00,weatherlink.com 1.10,2013-04-23 23:05:00,
2013-04-23 17:20:00,37.4,14.0,25.70,NNW,328,8.0,16.0,39,0.00,,,0.00,weatherlink.com 1.10,2013-04-23 23:20:00,
2013-04-23 17:35:00,37.8,14.0,25.70,NW,322,8.0,15.0,38,0.00,,,0.00,weatherlink.com 1.10,2013-04-23 23:35:00,
2013-04-23 17:50:00,37.8,15.0,25.70,NNW,330,11.0,18.0,40,0.00,,,0.00,weatherlink.com 1.10,2013-04-23 23:50:00,
2013-04-23 18:05:00,37.9,16.0,25.70,NNW,333,13.0,19.0,41,0.00,,,0.00,weatherlink.com 1.10,2013-04-24 00:05:00,
2013-04-23 18:20:00,37.5,14.0,25.70,NNE,20,8.0,13.0,39,0.00,,,0.00,weatherlink.com 1.10,2013-04-24 00:20:00,
2013-04-23 18:35:00,37.4,14.0,25.70,NW,322,10.0,15.0,38,0.00,,,0.00,weatherlink.com 1.10,2013-04-24 00:35:00,
2013-04-23 18:50:00,37.1,14.0,25.70,NW,323,9.0,15.0,39,0.00,,,0.00,weatherlink.com 1.10,2013-04-24 00:50:00,
2013-04-23 19:05:00,36.7,14.0,25.70,NNW,330,9.0,11.0,40,0.00,,,0.00,weatherlink.com 1.10,2013-04-24 01:05:00,
2013-04-23 19:20:00,35.9,16.0,25.70,NNW,344,4.0,6.0,44,0.00,,,0.00,weatherlink.com 1.10,2013-04-24 01:20:00,
2013-04-23 19:35:00,34.4,16.0,25.70,NNW,332,3.0,6.0,48,0.00,,,0.00,weatherlink.com 1.10,2013-04-24 01:35:00,
2013-04-23 19:50:00,32.6,16.0,25.71,NNW,332,2.0,3.0,50,0.00,,,0.00,weatherlink.com 1.10,2013-04-24 01:50:00,
2013-04-23 20:05:00,31.3,16.0,25.71,NNW,335,0.0,1.0,54,0.00,,,0.00,weatherlink.com 1.10,2013-04-24 02:05:00,
2013-04-23 20:20:00,29.8,15.0,25.71,NNW,335,0.0,0.0,55,0.00,,,0.00,weatherlink.com 1.10,2013-04-24 02:20:00,
2013-04-23 21:06:00,28.3,16.0,25.73,ENE,70,4.0,5.0,60,0.00,,,0.00,weatherlink.com 1.10,2013-04-24 03:06:00,
2013-04-23 21:20:00,27.7,16.0,25.73,ESE,102,5.0,6.0,61,0.00,,,0.00,weatherlink.com 1.10,2013-04-24 03:20:00,
2013-04-23 22:05:00,26.5,17.0,25.73,SE,135,4.0,4.0,67,0.00,,,0.00,weatherlink.com 1.10,2013-04-24 04:05:00,
2013-04-23 22:20:00,25.6,16.0,25.73,SSE,165,2.0,4.0,68,0.00,,,0.00,weatherlink.com 1.10,2013-04-24 04:20:00,
2013-04-23 22:35:00,24.1,16.0,25.73,SSE,167,3.0,4.0,72,0.00,,,0.00,weatherlink.com 1.10,2013-04-24 04:35:00,
2013-04-23 22:50:00,23.6,17.0,25.73,SSW,193,2.0,4.0,75,0.00,,,0.00,weatherlink.com 1.10,2013-04-24 04:50:00,
2013-04-23 23:05:00,23.1,17.0,25.74,South,185,2.0,3.0,77,0.00,,,0.00,weatherlink.com 1.10,2013-04-24 05:05:00,
2013-04-23 23:20:00,22.8,17.0,25.74,SW,227,1.0,3.0,78,0.00,,,0.00,weatherlink.com 1.10,2013-04-24 05:20:00,
2013-04-23 23:35:00,22.4,17.0,25.73,SSW,211,3.0,3.0,79,0.00,,,0.00,weatherlink.com 1.10,2013-04-24 05:35:00,
2013-04-23 23:50:00,22.8,17.0,25.73,SW,222,4.0,4.0,77,0.00,,,0.00,weatherlink.com 1.10,2013-04-24 05:50:00,